Simultaneous Nadir Overpasses (SNOs) Predictions

Prediction of SNOs between GOES-17 and NOAA-20 Satellite Orbit:

Table of predicted SNOs for the next 14.0 days since TLE Epoch: 12/23/2023
Index Date Time (GOES-17) GOES-17 Lat,Lon NOAA-20 Lat,Lon Distance(km) Time Diff (sec)
1 12/23/2023 08:05:32 0.02,-104.70 -0.92,-100.56 472.00 80
2 12/24/2023 20:27:27 -0.02,-104.67 -0.30,-105.85 135.14 80
3 12/25/2023 20:11:23 -0.02,-104.67 0.75,-101.33 381.52 80
4 12/27/2023 08:33:10 0.02,-104.70 0.44,-106.59 215.62 80
5 12/28/2023 08:11:45 0.02,-104.70 -0.55,-102.05 300.79 80
6 12/29/2023 20:33:41 -0.01,-104.67 -0.60,-107.36 306.58 80
7 12/30/2023 20:17:35 -0.00,-104.67 0.39,-102.82 210.24 80
8 01/01/2024 08:39:23 -0.00,-104.71 0.78,-108.09 385.93 80
9 01/02/2024 08:17:58 -0.01,-104.71 -0.27,-103.57 130.87 80
10 01/03/2024 20:39:53 0.01,-104.69 -0.92,-108.87 476.11 80
11 01/04/2024 20:23:48 0.01,-104.69 0.08,-104.33 41.05 80
